Time,TemperatureF,DewpointF,PressureIn,WindDirection,WindDirectionDegrees,WindSpeedMPH,WindSpeedGustMPH,Humidity,HourlyPrecipIn,Conditions,Clouds,dailyrainin,SoftwareType,DateUTC
2013-01-06 00:05:00,27.8,22.4,29.79,WSW,254,7.0,18.0,80,0.00,,,0.00,Wunderground v.1.15,2013-01-06 05:05:00,
2013-01-06 00:10:00,27.8,22.4,29.78,West,263,9.0,18.0,80,0.00,,,0.00,Wunderground v.1.15,2013-01-06 05:10:00,
2013-01-06 00:15:00,27.8,22.4,29.78,WNW,286,9.0,9.0,80,0.00,,,0.00,Wunderground v.1.15,2013-01-06 05:15:00,
2013-01-06 00:20:00,27.9,22.5,29.79,West,265,8.0,18.0,80,0.00,,,0.00,Wunderground v.1.15,2013-01-06 05:20:00,
2013-01-06 00:30:00,27.9,23.1,29.78,WNW,282,9.0,9.0,82,0.00,,,0.00,Wunderground v.1.15,2013-01-06 05:30:00,
2013-01-06 00:35:00,27.6,23.1,29.78,West,273,9.0,9.0,83,0.00,,,0.00,Wunderground v.1.15,2013-01-06 05:35:00,
2013-01-06 00:40:00,27.5,23.0,29.78,West,266,7.0,18.0,83,0.00,,,0.00,Wunderground v.1.15,2013-01-06 05:40:00,
2013-01-06 00:45:00,27.5,23.0,29.77,West,278,5.0,18.0,83,0.00,,,0.00,Wunderground v.1.15,2013-01-06 05:45:00,
2013-01-06 00:50:00,27.6,22.8,29.77,West,262,6.0,18.0,82,0.00,,,0.00,Wunderground v.1.15,2013-01-06 05:50:00,
2013-01-06 01:00:00,27.6,22.8,29.78,WSW,256,6.0,18.0,82,0.00,,,0.00,Wunderground v.1.15,2013-01-06 06:00:00,
2013-01-06 01:05:00,27.6,22.8,29.78,WNW,288,6.0,6.0,82,0.00,,,0.00,Wunderground v.1.15,2013-01-06 06:05:00,
2013-01-06 01:10:00,27.7,22.6,29.79,WSW,251,5.0,18.0,81,0.00,,,0.00,Wunderground v.1.15,2013-01-06 06:10:00,
2013-01-06 01:15:00,27.8,22.7,29.79,West,280,6.0,18.0,81,0.00,,,0.00,Wunderground v.1.15,2013-01-06 06:15:00,
2013-01-06 01:20:00,27.8,22.7,29.79,West,275,8.0,18.0,81,0.00,,,0.00,Wunderground v.1.15,2013-01-06 06:20:00,
2013-01-06 01:25:00,27.8,22.7,29.78,WSW,247,8.0,8.0,81,0.00,,,0.00,Wunderground v.1.15,2013-01-06 06:25:00,
2013-01-06 01:35:00,27.8,22.4,29.76,West,277,6.0,18.0,80,0.00,,,0.00,Wunderground v.1.15,2013-01-06 06:35:00,
2013-01-06 01:40:00,27.8,22.7,29.76,West,261,6.0,18.0,81,0.00,,,0.00,Wunderground v.1.15,2013-01-06 06:40:00,
2013-01-06 01:45:00,27.8,22.7,29.76,West,273,7.0,7.0,81,0.00,,,0.00,Wunderground v.1.15,2013-01-06 06:45:00,
2013-01-06 01:50:00,27.9,22.5,29.76,West,261,6.0,18.0,80,0.00,,,0.00,Wunderground v.1.15,2013-01-06 06:50:00,
2013-01-06 01:55:00,27.9,22.5,29.75,WSW,253,5.0,18.0,80,0.00,,,0.00,Wunderground v.1.15,2013-01-06 06:55:00,
2013-01-06 02:05:00,27.8,22.7,29.75,West,261,6.0,18.0,81,0.00,,,0.00,Wunderground v.1.15,2013-01-06 07:05:00,
2013-01-06 02:10:00,27.8,22.7,29.76,WNW,285,5.0,18.0,81,0.00,,,0.00,Wunderground v.1.15,2013-01-06 07:10:00,
2013-01-06 02:15:00,27.7,22.6,29.76,West,268,5.0,18.0,81,0.00,,,0.00,Wunderground v.1.15,2013-01-06 07:15:00,
2013-01-06 02:20:00,27.7,22.6,29.75,West,279,5.0,18.0,81,0.00,,,0.00,Wunderground v.1.15,2013-01-06 07:20:00,
2013-01-06 02:25:00,27.7,22.6,29.75,West,278,5.0,18.0,81,0.00,,,0.00,Wunderground v.1.15,2013-01-06 07:25:00,
2013-01-06 02:30:00,27.8,22.7,29.75,West,263,5.0,18.0,81,0.00,,,0.00,Wunderground v.1.15,2013-01-06 07:30:00,
2013-01-06 02:40:00,27.9,22.8,29.75,West,259,6.0,18.0,81,0.00,,,0.00,Wunderground v.1.15,2013-01-06 07:40:00,
2013-01-06 02:45:00,28.0,22.9,29.75,West,275,7.0,7.0,81,0.00,,,0.00,Wunderground v.1.15,2013-01-06 07:45:00,
2013-01-06 02:50:00,28.0,22.9,29.75,West,276,6.0,18.0,81,0.00,,,0.00,Wunderground v.1.15,2013-01-06 07:50:00,
2013-01-06 02:55:00,28.1,23.0,29.75,West,271,6.0,18.0,81,0.00,,,0.00,Wunderground v.1.15,2013-01-06 07:55:00,
2013-01-06 03:00:00,28.1,23.0,29.74,West,275,7.0,18.0,81,0.00,,,0.00,Wunderground v.1.15,2013-01-06 08:00:00,
2013-01-06 03:06:00,28.0,22.9,29.75,WNW,286,7.0,18.0,81,0.00,,,0.00,Wunderground v.1.15,2013-01-06 08:06:00,
2013-01-06 03:11:00,27.9,23.1,29.74,WNW,287,7.0,18.0,82,0.00,,,0.00,Wunderground v.1.15,2013-01-06 08:11:00,
2013-01-06 03:16:00,27.6,22.8,29.74,West,267,6.0,6.0,82,0.00,,,0.00,Wunderground v.1.15,2013-01-06 08:16:00,
2013-01-06 03:21:00,27.4,22.9,29.74,WSW,246,6.0,18.0,83,0.00,,,0.00,Wunderground v.1.15,2013-01-06 08:21:00,
2013-01-06 03:30:00,27.3,23.1,29.73,West,262,7.0,10.0,84,0.00,,,0.00,Wunderground v.1.15,2013-01-06 08:30:00,
2013-01-06 03:35:00,27.3,23.4,29.73,West,259,8.0,18.0,85,0.00,,,0.00,Wunderground v.1.15,2013-01-06 08:35:00,
2013-01-06 03:41:00,27.3,23.4,29.72,WSW,257,7.0,18.0,85,0.00,,,0.00,Wunderground v.1.15,2013-01-06 08:41:00,
2013-01-06 03:50:00,27.3,23.7,29.72,West,259,7.0,18.0,86,0.00,,,0.00,Wunderground v.1.15,2013-01-06 08:50:00,
2013-01-06 03:55:00,27.2,23.6,29.72,WNW,282,7.0,7.0,86,0.00,,,0.00,Wunderground v.1.15,2013-01-06 08:55:00,
2013-01-06 04:00:00,27.2,23.6,29.72,West,275,7.0,18.0,86,0.00,,,0.00,Wunderground v.1.15,2013-01-06 09:00:00,
2013-01-06 04:05:00,27.2,23.8,29.72,West,279,7.0,18.0,87,0.00,,,0.00,Wunderground v.1.15,2013-01-06 09:05:00,
2013-01-06 04:15:00,27.2,23.6,29.71,West,270,6.0,18.0,86,0.00,,,0.00,Wunderground v.1.15,2013-01-06 09:15:00,
2013-01-06 04:20:00,27.1,23.5,29.71,West,279,8.0,18.0,86,0.00,,,0.00,Wunderground v.1.15,2013-01-06 09:20:00,
2013-01-06 04:25:00,27.1,23.5,29.70,WSW,258,9.0,18.0,86,0.00,,,0.00,Wunderground v.1.15,2013-01-06 09:25:00,
2013-01-06 04:30:00,27.0,23.4,29.70,West,267,10.0,18.0,86,0.00,,,0.00,Wunderground v.1.15,2013-01-06 09:30:00,
2013-01-06 04:35:00,26.9,23.3,29.70,WSW,253,11.0,18.0,86,0.00,,,0.00,Wunderground v.1.15,2013-01-06 09:35:00,
2013-01-06 04:40:00,26.8,23.2,29.70,West,281,11.0,18.0,86,0.00,,,0.00,Wunderground v.1.15,2013-01-06 09:40:00,
2013-01-06 04:50:00,26.6,23.3,29.69,West,281,11.0,18.0,87,0.00,,,0.00,Wunderground v.1.15,2013-01-06 09:50:00,
2013-01-06 04:55:00,26.6,23.3,29.69,West,273,9.0,9.0,87,0.00,,,0.00,Wunderground v.1.15,2013-01-06 09:55:00,
2013-01-06 05:00:00,26.5,23.2,29.69,West,278,9.0,18.0,87,0.00,,,0.00,Wunderground v.1.15,2013-01-06 10:00:00,
2013-01-06 05:05:00,26.3,23.0,29.69,WNW,288,8.0,18.0,87,0.00,,,0.00,Wunderground v.1.15,2013-01-06 10:05:00,
2013-01-06 05:10:00,26.3,23.0,29.69,West,270,8.0,18.0,87,0.00,,,0.00,Wunderground v.1.15,2013-01-06 10:10:00,
2013-01-06 05:20:00,26.0,22.9,29.68,WSW,254,9.0,18.0,88,0.00,,,0.00,Wunderground v.1.15,2013-01-06 10:20:00,
2013-01-06 05:25:00,25.9,22.8,29.68,WSW,252,9.0,9.0,88,0.00,,,0.00,Wunderground v.1.15,2013-01-06 10:25:00,
2013-01-06 05:30:00,26.1,23.3,29.68,West,267,8.0,18.0,89,0.00,,,0.00,Wunderground v.1.15,2013-01-06 10:30:00,
2013-01-06 05:35:00,26.3,23.2,29.68,West,274,7.0,18.0,88,0.00,,,0.00,Wunderground v.1.15,2013-01-06 10:35:00,
2013-01-06 05:40:00,26.5,23.7,29.68,West,281,7.0,18.0,89,0.00,,,0.00,Wunderground v.1.15,2013-01-06 10:40:00,
2013-01-06 05:45:00,26.7,23.6,29.67,West,269,8.0,18.0,88,0.00,,,0.00,Wunderground v.1.15,2013-01-06 10:45:00,
2013-01-06 05:51:00,26.9,23.8,29.67,WSW,246,9.0,18.0,88,0.00,,,0.00,Wunderground v.1.15,2013-01-06 10:51:00,
2013-01-06 05:56:00,27.1,24.0,29.67,West,268,9.0,9.0,88,0.00,,,0.00,Wunderground v.1.15,2013-01-06 10:56:00,
2013-01-06 06:01:00,27.2,24.1,29.67,WSW,252,9.0,18.0,88,0.00,,,0.00,Wunderground v.1.15,2013-01-06 11:01:00,
2013-01-06 06:06:00,27.3,24.2,29.68,West,280,9.0,9.0,88,0.00,,,0.00,Wunderground v.1.15,2013-01-06 11:06:00,
2013-01-06 06:11:00,27.4,24.3,29.68,West,263,7.0,18.0,88,0.00,,,0.00,Wunderground v.1.15,2013-01-06 11:11:00,
2013-01-06 06:21:00,27.6,24.5,29.68,SW,230,4.0,18.0,88,0.00,,,0.00,Wunderground v.1.15,2013-01-06 11:21:00,
2013-01-06 06:26:00,27.7,24.6,29.68,SW,230,3.0,3.0,88,0.00,,,0.00,Wunderground v.1.15,2013-01-06 11:26:00,
2013-01-06 06:31:00,28.0,24.9,29.68,West,279,3.0,4.0,88,0.00,,,0.00,Wunderground v.1.15,2013-01-06 11:31:00,
2013-01-06 06:36:00,28.2,24.8,29.68,WSW,246,4.0,18.0,87,0.00,,,0.00,Wunderground v.1.15,2013-01-06 11:36:00,
2013-01-06 06:41:00,28.3,24.9,29.67,West,276,6.0,18.0,87,0.00,,,0.00,Wunderground v.1.15,2013-01-06 11:41:00,
2013-01-06 06:46:00,28.3,24.9,29.68,West,259,7.0,7.0,87,0.00,,,0.00,Wunderground v.1.15,2013-01-06 11:46:00,
2013-01-06 06:56:00,28.3,25.2,29.68,West,275,5.0,5.0,88,0.00,,,0.00,Wunderground v.1.15,2013-01-06 11:56:00,
2013-01-06 07:01:00,28.2,25.4,29.68,WSW,250,4.0,18.0,89,0.00,,,0.00,Wunderground v.1.15,2013-01-06 12:01:00,
2013-01-06 07:06:00,28.2,25.4,29.68,West,275,3.0,18.0,89,0.00,,,0.00,Wunderground v.1.15,2013-01-06 12:06:00,
2013-01-06 07:11:00,28.1,25.5,29.67,WSW,257,5.0,18.0,90,0.00,,,0.00,Wunderground v.1.15,2013-01-06 12:11:00,
2013-01-06 07:16:00,27.9,25.3,29.68,West,275,4.0,4.0,90,0.00,,,0.00,Wunderground v.1.15,2013-01-06 12:16:00,
2013-01-06 07:21:00,28.1,25.8,29.67,WSW,257,2.0,5.0,91,0.00,,,0.00,Wunderground v.1.15,2013-01-06 12:21:00,
2013-01-06 07:31:00,28.2,25.9,29.67,West,259,4.0,18.0,91,0.00,,,0.00,Wunderground v.1.15,2013-01-06 12:31:00,
2013-01-06 07:36:00,28.3,25.7,29.67,WSW,253,4.0,18.0,90,0.00,,,0.00,Wunderground v.1.15,2013-01-06 12:36:00,
2013-01-06 07:41:00,28.5,25.9,29.67,West,281,4.0,18.0,90,0.00,,,0.00,Wunderground v.1.15,2013-01-06 12:41:00,
2013-01-06 07:46:00,28.7,25.9,29.67,West,278,7.0,7.0,89,0.00,,,0.00,Wunderground v.1.15,2013-01-06 12:46:00,
2013-01-06 07:51:00,28.8,26.0,29.68,West,273,7.0,18.0,89,0.00,,,0.00,Wunderground v.1.15,2013-01-06 12:51:00,
2013-01-06 08:00:00,28.9,25.8,29.68,West,277,5.0,18.0,88,0.00,,,0.00,Wunderground v.1.15,2013-01-06 13:00:00,
2013-01-06 08:05:00,28.9,25.8,29.67,West,272,6.0,18.0,88,0.00,,,0.00,Wunderground v.1.15,2013-01-06 13:05:00,
2013-01-06 08:10:00,28.9,25.8,29.67,West,278,6.0,18.0,88,0.00,,,0.00,Wunderground v.1.15,2013-01-06 13:10:00,
2013-01-06 08:15:00,29.0,25.9,29.67,West,272,7.0,7.0,88,0.00,,,0.00,Wunderground v.1.15,2013-01-06 13:15:00,
2013-01-06 08:20:00,29.2,26.1,29.67,West,265,7.0,11.0,88,0.00,,,0.00,Wunderground v.1.15,2013-01-06 13:20:00,
2013-01-06 08:25:00,29.4,26.0,29.67,WSW,257,8.0,18.0,87,0.00,,,0.00,Wunderground v.1.15,2013-01-06 13:25:00,
2013-01-06 08:35:00,29.7,26.3,29.67,West,276,6.0,18.0,87,0.00,,,0.00,Wunderground v.1.15,2013-01-06 13:35:00,
2013-01-06 08:40:00,29.7,26.0,29.67,West,278,7.0,18.0,86,0.00,,,0.00,Wunderground v.1.15,2013-01-06 13:40:00,
2013-01-06 08:45:00,29.9,26.2,29.66,West,279,8.0,8.0,86,0.00,,,0.00,Wunderground v.1.15,2013-01-06 13:45:00,
2013-01-06 08:50:00,30.5,26.8,29.66,WNW,298,8.0,18.0,86,0.00,,,0.00,Wunderground v.1.15,2013-01-06 13:50:00,
2013-01-06 08:55:00,30.9,26.6,29.66,NW,326,8.0,8.0,84,0.00,,,0.00,Wunderground v.1.15,2013-01-06 13:55:00,
2013-01-06 09:05:00,31.2,26.6,29.66,West,281,9.0,9.0,83,0.00,,,0.00,Wunderground v.1.15,2013-01-06 14:05:00,
2013-01-06 09:10:00,31.3,26.4,29.66,SW,234,9.0,18.0,82,0.00,,,0.00,Wunderground v.1.15,2013-01-06 14:10:00,
2013-01-06 09:15:00,31.2,26.6,29.66,West,265,8.0,8.0,83,0.00,,,0.00,Wunderground v.1.15,2013-01-06 14:15:00,
2013-01-06 09:20:00,31.4,26.8,29.66,WNW,282,8.0,18.0,83,0.00,,,0.00,Wunderground v.1.15,2013-01-06 14:20:00,
2013-01-06 09:25:00,31.6,27.0,29.67,West,275,6.0,18.0,83,0.00,,,0.00,Wunderground v.1.15,2013-01-06 14:25:00,
2013-01-06 09:30:00,31.6,26.7,29.67,West,261,5.0,18.0,82,0.00,,,0.00,Wunderground v.1.15,2013-01-06 14:30:00,
2013-01-06 09:35:00,31.5,26.6,29.67,West,274,5.0,18.0,82,0.00,,,0.00,Wunderground v.1.15,2013-01-06 14:35:00,
2013-01-06 09:40:00,31.6,27.0,29.67,West,280,5.0,18.0,83,0.00,,,0.00,Wunderground v.1.15,2013-01-06 14:40:00,
2013-01-06 09:45:00,31.9,27.0,29.67,WSW,257,4.0,18.0,82,0.00,,,0.00,Wunderground v.1.15,2013-01-06 14:45:00,
2013-01-06 09:50:00,32.4,27.2,29.67,WSW,250,4.0,18.0,81,0.00,,,0.00,Wunderground v.1.15,2013-01-06 14:50:00,
2013-01-06 09:55:00,32.4,27.2,29.67,WSW,250,4.0,4.0,81,0.00,,,0.00,Wunderground v.1.15,2013-01-06 14:55:00,
2013-01-06 10:00:00,32.5,27.3,29.67,WSW,249,4.0,6.0,81,0.00,,,0.00,Wunderground v.1.15,2013-01-06 15:00:00,
2013-01-06 10:10:00,33.0,27.5,29.66,West,267,5.0,18.0,80,0.00,,,0.00,Wunderground v.1.15,2013-01-06 15:10:00,
2013-01-06 10:15:00,33.0,27.5,29.66,WNW,284,6.0,6.0,80,0.00,,,0.00,Wunderground v.1.15,2013-01-06 15:15:00,
2013-01-06 21:50:00,33.0,30.4,29.67,South,186,2.0,18.0,90,0.00,,,0.01,Wunderground v.1.15,2013-01-07 02:50:00,
2013-01-06 21:55:00,33.0,30.4,29.67,North,349,2.0,2.0,90,0.00,,,0.01,Wunderground v.1.15,2013-01-07 02:55:00,
2013-01-06 22:00:00,33.0,30.4,29.67,NE,38,2.0,3.0,90,0.00,,,0.01,Wunderground v.1.15,2013-01-07 03:00:00,
2013-01-06 22:05:00,33.0,30.4,29.68,West,269,3.0,18.0,90,0.00,,,0.01,Wunderground v.1.15,2013-01-07 03:05:00,
2013-01-06 22:10:00,33.0,30.4,29.68,West,270,3.0,18.0,90,0.00,,,0.01,Wunderground v.1.15,2013-01-07 03:10:00,
2013-01-06 22:15:00,32.9,30.3,29.68,North,5,2.0,2.0,90,0.00,,,0.01,Wunderground v.1.15,2013-01-07 03:15:00,
2013-01-06 22:20:00,32.9,30.3,29.68,SSW,197,1.0,18.0,90,0.00,,,0.01,Wunderground v.1.15,2013-01-07 03:20:00,
2013-01-06 22:25:00,32.9,30.6,29.68,SSW,213,2.0,2.0,91,0.00,,,0.01,Wunderground v.1.15,2013-01-07 03:25:00,
2013-01-06 22:35:00,32.8,30.5,29.68,SW,217,2.0,18.0,91,0.00,,,0.01,Wunderground v.1.15,2013-01-07 03:35:00,
2013-01-06 22:40:00,32.8,30.5,29.68,ENE,67,2.0,18.0,91,0.00,,,0.01,Wunderground v.1.15,2013-01-07 03:40:00,
2013-01-06 22:45:00,32.8,30.5,29.69,West,264,3.0,18.0,91,0.00,,,0.01,Wunderground v.1.15,2013-01-07 03:45:00,
2013-01-06 22:50:00,32.8,30.5,29.69,SW,227,2.0,18.0,91,0.00,,,0.01,Wunderground v.1.15,2013-01-07 03:50:00,
2013-01-06 22:55:00,32.7,30.4,29.69,North,355,3.0,3.0,91,0.00,,,0.01,Wunderground v.1.15,2013-01-07 03:55:00,
2013-01-06 23:00:00,32.6,30.5,29.69,NE,49,3.0,18.0,92,0.00,,,0.01,Wunderground v.1.15,2013-01-07 04:00:00,
2013-01-06 23:10:00,32.5,30.4,29.69,WSW,238,2.0,5.0,92,0.00,,,0.01,Wunderground v.1.15,2013-01-07 04:10:00,
2013-01-06 23:15:00,32.4,30.3,29.70,West,261,2.0,2.0,92,0.00,,,0.01,Wunderground v.1.15,2013-01-07 04:15:00,
2013-01-06 23:20:00,32.4,30.3,29.70,NNE,22,1.0,3.0,92,0.00,,,0.01,Wunderground v.1.15,2013-01-07 04:20:00,
2013-01-06 23:25:00,32.4,30.6,29.70,NNW,338,2.0,2.0,93,0.00,,,0.01,Wunderground v.1.15,2013-01-07 04:25:00,
2013-01-06 23:30:00,32.4,30.6,29.70,West,277,2.0,6.0,93,0.00,,,0.01,Wunderground v.1.15,2013-01-07 04:30:00,
2013-01-06 23:40:00,32.4,30.6,29.70,NW,307,2.0,18.0,93,0.00,,,0.01,Wunderground v.1.15,2013-01-07 04:40:00,
2013-01-06 23:45:00,32.3,30.5,29.70,WNW,301,2.0,2.0,93,0.00,,,0.01,Wunderground v.1.15,2013-01-07 04:45:00,
2013-01-06 23:50:00,32.4,30.6,29.70,ENE,60,2.0,18.0,93,0.00,,,0.01,Wunderground v.1.15,2013-01-07 04:50:00,
2013-01-06 23:55:00,32.3,30.5,29.70,WNW,286,2.0,2.0,93,0.00,,,0.01,Wunderground v.1.15,2013-01-07 04:55:00,